Weather History for KPLU - November, 2012

Change the Weather History Date:

Thursday, November 15, 2012

  Actual Average (KTCM) Record (KTCM)
Temperature  
Mean Temperature 37 °F -  
Max Temperature 39 °F 49 °F 62 °F (2001)
Min Temperature 35 °F 35 °F 2 °F (1955)
Degree Days  
Heating Degree Days 28    
Moisture  
Dew Point 38 °F    
Average Humidity 100    
Maximum Humidity 100    
Minimum Humidity 100    
Precipitation  
Precipitation 0.00 in - - ()
Sea Level Pressure  
Sea Level Pressure 30.00 in    
Wind  
Wind Speed 0 mph (North)    
Max Wind Speed 0 mph    
Max Gust Speed -    
Visibility 1 miles    
Events Fog    
Averages and records for this station are not official NWS values.
T = Trace of Precipitation, MM = Missing Value Source: NWS Daily Summary

Daily Weather History Graph

Daily Weather History Graph

Search for Another Location

Airport or City:

Trip Planner

Search our weather history database for the weather conditions in past years. The results will help you decide how hot, cold, wet, or windy it might be!

Date:

Astronomy

Nov. 15, 2012 Rise Set
Actual Time 7:13 AM PST 4:33 PM PST
Civil Twilight 6:40 AM PST 5:06 PM PST
Nautical Twilight 6:03 AM PST 5:43 PM PST
Astronomical Twilight 5:27 AM PST 6:19 PM PST
Moon 9:19 AM PST (11/15) 6:26 PM PST (11/15)
Length of Visible Light 10h 26m
Length of Day
9h 19m
Waxing Crescent, 5% of the Moon is Illuminated
Nov 15
Waxing Crescent
Nov 20
First Quarter
Nov 28
Full
Dec 6
Last Quarter
Dec 13
New

Hourly Weather History & Observations

Time (PST) Temp. Dew Point Humidity Pressure Visibility Wind Dir Wind Speed Gust Speed Precip Events Conditions
10:55 AM 37.4 °F 37.4 °F 100% 30.08 in 1.2 mi Calm Calm - N/A   Mist
11:15 AM 37.4 °F 37.4 °F 100% 30.07 in 1.8 mi Calm Calm - N/A   Overcast
11:35 AM 39.2 °F 39.2 °F 100% 30.06 in 2.0 mi Calm Calm - N/A   Overcast
11:55 AM 39.2 °F 39.2 °F 100% 30.05 in 2.5 mi Calm Calm - N/A   Overcast
12:35 PM 39.2 °F 39.2 °F 100% 30.04 in 3.0 mi Calm Calm - N/A   Overcast
12:55 PM 39.2 °F 39.2 °F 100% 30.04 in 3.0 mi Calm Calm - N/A   Overcast
1:15 PM 39.2 °F 39.2 °F 100% 30.03 in 2.5 mi Calm Calm - N/A   Overcast
1:35 PM 39.2 °F 39.2 °F 100% 30.03 in 2.5 mi Calm Calm - N/A   Overcast
1:55 PM 39.2 °F 39.2 °F 100% 30.03 in 4.0 mi Calm Calm - N/A   Overcast
2:15 PM 39.2 °F 39.2 °F 100% 30.03 in 3.0 mi Calm Calm - N/A   Overcast
2:35 PM 39.2 °F 39.2 °F 100% 30.02 in 3.0 mi Calm Calm - N/A   Overcast
2:55 PM 39.2 °F 39.2 °F 100% 30.02 in 2.5 mi Calm Calm - N/A   Overcast
3:35 PM 39.2 °F 39.2 °F 100% 30.01 in 1.5 mi Calm Calm - N/A   Overcast
3:55 PM 39.2 °F 39.2 °F 100% 30.01 in 1.8 mi Calm Calm - N/A   Overcast
4:15 PM 39.2 °F 39.2 °F 100% 30.00 in 1.5 mi Calm Calm - N/A   Overcast
4:35 PM 39.2 °F 39.2 °F 100% 29.99 in 1.2 mi Calm Calm - N/A   Overcast
4:55 PM 39.2 °F 39.2 °F 100% 29.99 in 1.2 mi Calm Calm - N/A   Overcast
5:35 PM 39.2 °F 39.2 °F 100% 29.99 in 0.5 mi Calm Calm - N/A Fog Fog
5:55 PM 37.4 °F 37.4 °F 100% 29.99 in 0.5 mi Calm Calm - N/A Fog Fog
6:15 PM 37.4 °F 37.4 °F 100% 29.99 in 0.5 mi Calm Calm - N/A Fog Fog
6:55 PM 37.4 °F 37.4 °F 100% 29.99 in 1.0 mi Calm Calm - N/A   Overcast
7:15 PM 39.2 °F 39.2 °F 100% 29.98 in 0.5 mi Calm Calm - N/A Fog Fog
7:35 PM 37.4 °F 37.4 °F 100% 29.98 in 0.2 mi Calm Calm - N/A Fog Fog
7:55 PM 37.4 °F 37.4 °F 100% 29.97 in 0.2 mi Calm Calm - N/A Fog Fog
8:15 PM 37.4 °F 37.4 °F 100% 29.96 in 0.2 mi Calm Calm - N/A Fog Fog
8:35 PM 37.4 °F 37.4 °F 100% 29.96 in 0.2 mi Calm Calm - N/A Fog Fog
8:55 PM 37.4 °F 37.4 °F 100% 29.96 in 0.2 mi Calm Calm - N/A Fog Fog
9:15 PM 37.4 °F 37.4 °F 100% 29.96 in 0.2 mi Calm Calm - N/A Fog Fog
9:35 PM 37.4 °F 37.4 °F 100% 29.96 in 0.2 mi Calm Calm - N/A Fog Fog
9:55 PM 37.4 °F 37.4 °F 100% 29.96 in 0.2 mi Calm Calm - N/A Fog Fog
10:15 PM 37.4 °F 37.4 °F 100% 29.96 in 0.2 mi Calm Calm - N/A Fog Fog
10:35 PM 37.4 °F 37.4 °F 100% 29.96 in 0.2 mi Calm Calm - N/A Fog Fog
10:55 PM 35.6 °F 35.6 °F 100% 29.95 in 0.2 mi Calm Calm - N/A Fog Fog
11:15 PM 35.6 °F 35.6 °F 100% 29.95 in 0.2 mi Calm Calm - N/A Fog Fog
11:35 PM 35.6 °F 35.6 °F 100% 29.95 in 0.2 mi Calm Calm - N/A Fog Fog
11:55 PM 35.6 °F 35.6 °F 100% 29.95 in 0.2 mi Calm Calm - N/A Fog Fog